Regional Weather Roundup
Issued by NWS

Home | Current Version | Previous Version | Text Only | Print | Product List | Glossary Off
Versions: 1 2 3 4 5 6 7 8 9 10 11 12 13 14 15 16 17 18 19 20 21 22 23 24 25 26 27 28 29 30 31 32 33 34 35 36 37 38 39 40 41 42 43 44 45 46 47 48 49 50

000
ASUS45 KCYS 180010
RWRWY

WYOMING REGIONAL WEATHER ROUNDUP
NATIONAL WEATHER SERVICE CHEYENNE WY
600 PM MDT WED SEP 17 2014

NOTE:  "FAIR" INDICATES FEW OR NO CLOUDS BELOW 12,000 FEET
WITH NO SIGNIFICANT WEATHER AND/OR OBSTRUCTIONS TO VISIBILITY.

WYZ001-180100-
YELLOWSTONE NATIONAL PARK

CITY           SKY/WX    TMP DP  RH WIND       PRES   REMARKS
LK YELLOWSTONE   N/A     67  36  31 VRB5      30.20F
6HR MIN TEMP:  56; 6HR MAX TEMP:  71;

W YELLOWSTONE  NOT AVBL

$$
WYZ002>013-054>058-071-098>099-180100-
NORTHERN WYOMING

CITY           SKY/WX    TMP DP  RH WIND       PRES   REMARKS
JACKSON        NOT AVBL
CODY             N/A    N/A N/A N/A MISG        N/A
GREYBULL       MOSUNNY   84  43  23 SW6       29.89R
6HR MIN TEMP:  74; 6HR MAX TEMP:  86;

WORLAND        MOSUNNY   80  51  36 N5        29.90S
6HR MIN TEMP:  73; 6HR MAX TEMP:  87;

SHERIDAN       SUNNY     82  44  26 CALM      29.90F
6HR MIN TEMP:  80; 6HR MAX TEMP:  86;

BUFFALO        LGT RAIN  77  44  30 NW5       29.98S
6HR MIN TEMP:  76; 6HR MAX TEMP:  83; 6HR PCP: TRACE;

GILLETTE       SUNNY     80  47  31 NE8       29.93S
6HR MIN TEMP:  80; 6HR MAX TEMP:  85;

HULETT         FAIR      79  46  31 MISG      29.95
NEWCASTLE      FAIR      81  34  18 SE8       29.93

$$
WYZ014>020-022>026-101>103-180100-
CENTRAL WYOMING

CITY           SKY/WX    TMP DP  RH WIND       PRES   REMARKS
BIG PINEY      LGT RAIN  68  40  35 VRB6      30.14S
6HR MIN TEMP:  65; 6HR MAX TEMP:  77; 6HR PCP: TRACE;

PINEDALE       MOCLDY    73  36  25 SE8       30.15F
DUBOIS         FAIR      70  34  26 N8        30.13R
LANDER         MOSUNNY   77  37  23 NE8       29.98R
6HR MIN TEMP:  70; 6HR MAX TEMP:  87;

RIVERTON       MOSUNNY   82  34  17 NE6       29.99F
6HR MIN TEMP:  70; 6HR MAX TEMP:  84; 6HR PCP: TRACE;

CASPER         SUNNY     81  33  17 NW9       29.99F
6HR MIN TEMP:  78; 6HR MAX TEMP:  85;

DOUGLAS        PTSUNNY   81  39  22 W9        29.98F
6HR MIN TEMP:  79; 6HR MAX TEMP:  86;


$$
WYZ021-027>030-104>119-180100-
SOUTHERN WYOMING

CITY           SKY/WX    TMP DP  RH WIND       PRES   REMARKS
EVANSTON       MOSUNNY   75  35  23 E5        30.13F
6HR MIN TEMP:  74; 6HR MAX TEMP:  80; 6HR PCP: TRACE;

KEMMERER       PTCLDY   N/A N/A N/A SE5       30.16S
FORT BRIDGER   FAIR      79  38  23 S20G29    30.17S
ROCK SPRINGS   MOSUNNY   80  34  19 NW7       30.11S
6HR MIN TEMP:  70; 6HR MAX TEMP:  81;

DIXON          FAIR      80  38  22 W6        30.12S
RAWLINS        SUNNY     76  34  21 SW9       30.13S
6HR MIN TEMP:  72; 6HR MAX TEMP:  79;

SARATOGA       FAIR      72  37  28 CALM      30.17S
LARAMIE        PTSUNNY   70  39  32 W3        30.17F
6HR MIN TEMP:  61; 6HR MAX TEMP:  79; 6HR PCP:  0.03;

CHEYENNE       CLOUDY    76  39  26 N7        30.09F
6HR MIN TEMP:  73; 6HR MAX TEMP:  87; 6HR PCP: TRACE;

TORRINGTON     PTSUNNY   83  41  22 NW5       29.92F
6HR MIN TEMP:  78; 6HR MAX TEMP:  86;

PINE BLUFFS    FAIR      75  43  31 CALM      30.03S

$$


USA.gov is the U.S. government's official web portal to all federal, state and local government web resources and services.